Hourly Weather Roundup
Issued by NWS Central Illinois

Home | Current Version | Previous Version | Text Only | Print | Product List | Glossary On
Versions: 1 2 3 4 5 6 7 8 9 10 11 12 13 14 15 16 17 18 19 20 21 22 23 24 25 26 27 28 29 30 31 32 33 34 35 36 37 38 39 40 41 42 43 44 45 46 47 48 49 50
000
NZUS43 KILX 272110
HWRILX

AREA WEATHER ROUNDUP
NATIONAL WEATHER SERVICE, LINCOLN IL
400 PM CDT FRI MAY 27 2016


CITY           SKY/WX    TMP DP  RH WIND       PRES   REMARKS
BLOOMINGTON    CLOUDY    77  68  73 S26       29.86F
CHAMPAIGN      CLOUDY    82  67  60 S24G30    29.87F HX  84
DANVILLE       PTSUNNY   83  64  53 S16G24    29.86S HX  84
DECATUR        CLOUDY    78  68  71 S17G23    29.86F HX  80
EFFINGHAM      CLOUDY    78  71  76 SE12G21   29.89F HX  81
FLORA          PTSUNNY   78  69  73 S13       29.89S HX  80
GALESBURG      CLOUDY    74  68  79 S8        29.81S
JACKSONVILLE   CLOUDY    75  68  78 S15       29.82S
LACON          CLOUDY    78  67  67 S9        29.82S HX  80
LAWRENCEVILLE  PTSUNNY   83  65  54 S20G29    29.90F HX  85
LITCHFIELD     PTSUNNY   73  67  81 S14       29.85F
$$


CITY           SKY/WX    TMP DP  RH WIND       PRES   REMARKS
LINCOLN        CLOUDY    78  69  74 S16G22    29.84S HX  80
MACOMB         CLOUDY    77  69  76 S13       29.82F
MATTOON        CLOUDY    79  67  66 S10G24    29.88F HX  81
MT CARMEL AP   CLOUDY    83  65  55 S16G24    29.89F HX  84
OLNEY-NOBLE AP LGT RAIN  72  70  94 S8        29.90R
PARIS          CLOUDY    81  67  63 S12       29.90S HX  83
PEORIA         CLOUDY    77  66  68 S15       29.81F
PONTIAC        CLOUDY    82  67  60 S28       29.85F HX  84
RANTOUL        CLOUDY    81  68  65 SW14      29.87F HX  83
ROBINSON       CLOUDY    82  69  63 S15       29.90F HX  85
SPRINGFIELD    CLOUDY    78  68  71 S16       29.84F HX  80
TAYLORVILLE    CLOUDY    74  68  80 S17       29.85F
$$

...REGIONAL REPORTS...


CITY           SKY/WX    TMP DP  RH WIND       PRES   REMARKS
CHICAGO O`HARE PTSUNNY   75  70  84 S12G23    29.83F
KANKAKEE       CLOUDY    82  65  56 S15G22    29.86F HX  83
MOLINE         CLOUDY    76  67  73 S14       29.78F
MOUNT STERLING CLOUDY    77  69  77 S10       29.79F
MOUNT VERNON   CLOUDY    79  68  69 S13       29.88S HX  81
PITTSFIELD     CLOUDY    77  70  79 S9        29.81S
QUINCY         PTSUNNY   78  68  71 S8        29.78F HX  80
ROCKFORD       LGT RAIN  72  66  81 S16G23    29.85R
$$


CITY           SKY/WX    TMP DP  RH WIND       PRES   REMARKS
BURLINGTON     PTSUNNY   77  70  79 S13       29.77F
CEDAR RAPIDS   CLOUDY    78  68  71 S16G24    29.72S HX  80
DES MOINES     PTSUNNY   75  63  66 W10       29.74F
KIRKSVILLE     MOSUNNY   82  69  64 SW8       29.76S HX  85
OTTUMWA        PTSUNNY   80  66  62 SW9       29.73F HX  82
ST LOUIS       CLOUDY    78  68  71 S12G21    29.82F HX  80
$$


CITY           SKY/WX    TMP DP  RH WIND       PRES   REMARKS
TERRE HAUTE    CLOUDY    83  64  52 S18       29.91F HX  84
EVANSVILLE     MOSUNNY   84  64  50 S16G23    29.92F HX  85
INDIANAPOLIS   CLOUDY    85  60  42 S16G25    29.92F HX  85
LAFAYETTE      PTSUNNY   82  62  50 S16G24    29.88F HX  83
MADISON        CLOUDY    78  65  63 SW6       29.77F HX  80
MILWAUKEE      CLOUDY    71  63  75 SE14      29.83F
$$






USA.gov is the U.S. government's official web portal to all federal, state and local government web resources and services.